Location: Croisilles
(50.1998°N, 2.8793°E)
Time: 13:19:30
(UTC+00:00)

CZ-4B R/B - Pass Details

Date: 21 January 2021
Orbit: 387 x 458 km, 97.6° (Epoch: 26 February)

Event Time Altitude Azimuth Distance (km) Brightness Sun altitude
Exits shadow 17:24:16 - 27° (NNE) 1,881 4.1 -9.6°
Reaches altitude 10° 17:25:01 10° 32° (NNE) 1,589 3.7 -9.7°
Maximum altitude 17:28:07 32° 97° (E) 787 2.1 -10.1°
Drops below altitude 10° 17:31:07 10° 163° (SSE) 1,542 4.1 -10.6°
Sets 17:33:14 0° 173° (S) 2,390 5.2 -10.9°
